Regional Weather Roundup
Issued by NWS Cleveland, OH

Home | Current Version | Previous Version | Text Only | Print | Product List | Glossary Off
Versions: 1 2 3 4 5 6 7 8 9 10 11 12 13 14 15 16 17 18 19 20 21 22 23 24 25 26 27 28 29 30 31 32 33 34 35 36 37 38 39 40 41 42 43 44 45 46 47 48 49 50

000
ASUS41 KCLE 252210
RWRCLE
OHIO REGIONAL WEATHER ROUNDUP
NATIONAL WEATHER SERVICE WILMINGTON, OH
600 PM EDT SAT OCT 25 2014

NOTE: "FAIR" INDICATES FEW OR NO CLOUDS BELOW 12,000 FEET WITH NO
SIGNIFICANT WEATHER AND/OR OBSTRUCTIONS TO VISIBILITY.

OHZ001>008-015>018-024>027-034-035-043-044-252300-
   NORTHWEST OHIO

CITY           SKY/WX    TMP DP  RH WIND       PRES   REMARKS
DEFIANCE       CLEAR     68  37  32 W10G22    29.84R
FINDLAY        CLEAR     68  42  38 W16G28    29.82R HAZE
TOLEDO EXPRESS CLEAR     67  34  29 W17G28    29.79S
TOLEDO METCALF CLEAR     67  39  35 W15G28    29.78F
LIMA           CLEAR     69  39  33 W20G30    29.86R
$$

OHZ009>014-019>023-028>033-038-089-252300-
   NORTHEAST OHIO

CITY           SKY/WX    TMP DP  RH WIND       PRES   REMARKS
CLE-HOPKINS    CLEAR     66  48  52 W13       29.77S
CLE-LAKEFRONT  CLEAR     60  54  80 W12       29.75R
CUY CO. ARPT   CLEAR     64  55  72 W12G21    29.75F
LORAIN-ELYRIA  LGT RAIN  67  44  43 W13       29.77R
ASHTABULA      PTCLDY    61  51  70 W14G28    29.73F
AKRON-CANTON   PTCLDY    69  47  45 W20G28    29.76F
WOOSTER        CLEAR     69  46  43 W15G29    29.78S
MANSFIELD      CLEAR     68  46  45 W13G26    29.81R
YOUNGSTOWN     PTCLDY    67  48  50 W17G28    29.73S
$$

OHZ042-051>053-060>062-070>072-077>081-252300-
  SOUTHWEST OHIO

CITY           SKY/WX    TMP DP  RH WIND       PRES   REMARKS
CINC-COVINGTON PTCLDY    72  51  47 W10       29.93R
CINC-LUNKEN    CLEAR     71  54  54 W9        29.92S
HAMILTON       CLEAR     73  53  49 W8        29.91S
DAYTON         PTCLDY    74  47  38 W17G24    29.89S
WRIGHT-PAT AFB CLEAR     73  49  42 W13G21    29.87S
DAYTON GENERAL CLEAR     73  52  47 W7        29.89S
WILMINGTON     CLEAR     69  53  56 W14       29.89F
$$

OHZ036-037-039>041-045>050-054>059-063>069-073>076-082>088-252300-
  CENTRAL AND SOUTHEAST OHIO

CITY           SKY/WX    TMP DP  RH WIND       PRES   REMARKS
COLUMBUS       CLEAR     71  53  52 W9        29.83F
OSU AIRPORT    CLEAR     72  46  39 W15G25    29.83S
BOLTON FIELD   CLEAR     72  54  53 W14       29.85F
RICKENBACK AFB CLEAR     69  55  60 SW12      29.84F
NEWARK         CLEAR     70  52  52 SW10G20   29.82F
MARION         LGT RAIN  70  44  39 W16G24    29.83R
LANCASTER      CLEAR     68  53  58 SW10      29.85F
ZANESVILLE     CLEAR     67  53  61 W9        29.82F
NEW PHILLY     PTCLDY    69  53  56 SW7       29.78F
$$



USA.gov is the U.S. government's official web portal to all federal, state and local government web resources and services.